visible

Flag for Moldova Weather past 2 weeks in Tiraspol, Moldova

Now
61 °F

Partly sunny.


Feels Like: 61 °F
Forecast: 45 / 57 °F
Wind: 13 mph from Northwest

Location: Chisinau International Airport

Current Time: Sep 23, 2014 at 1:33:43 PM

Latest Report: Sep 23, 2014 at 1:00 PM


Visibility: N/A

Pressure: 29.62 "Hg

Humidity: 55%

Dew point: 45 °F

Location of TiraspolLocation

Historic Weather in Tiraspol — Graph

°F

Tiraspol temperature yesterday

Maximum temperature yesterday: 79 °F (at 5:00 PM)
Minimum temperature yesterday: 61 °F (at 2:00 AM)
Average temperature yesterday: 67 °F

Past Weeks' High & Low Weather Summary

 TemperatureHumidityPressure
High84 °F (Sep 10, 3:00 PM)88% (Sep 13, 4:30 AM)30.30 "Hg (Sep 13, 4:30 AM)
Low36 °F (Sep 20, 6:30 AM)13% (Sep 19, 5:00 PM)29.56 "Hg (Sep 22, 11:00 PM)
Average65 °F51%30.03 "Hg
* Reported Sep 8 12:00 Noon — Sep 23 12:30 PM, Tiraspol, Weather by CustomWeather, © 2014

Note: Actual official high and low records may vary slightly from our data, if they occured in-between our weather recording intervals... More about our weather records

Advertising

Tiraspol weather history for previous 24 hours

 ConditionsComfort  
Time TempWeatherWind HumidityBarometerVisibility
12:30 PM
Sep 23
61 °FPartly sunny.13 mph59%29.62 "HgN/A
12:00 PM59 °FPartly sunny.14 mph63%29.62 "HgN/A
11:30 AM59 °FPartly sunny.13 mph68%29.62 "HgN/A
11:00 AM59 °FPartly sunny.15 mph68%29.62 "HgN/A
10:30 AM57 °FPartly sunny.15 mph72%29.62 "HgN/A
10:00 AM55 °FBroken clouds.12 mph77%29.62 "HgN/A
9:30 AM55 °FMore clouds than sun.14 mph77%29.62 "HgN/A
9:00 AM55 °FBroken clouds.12 mph77%29.59 "HgN/A
8:30 AM55 °FPartly sunny.12 mph82%29.59 "HgN/A
8:00 AM54 °FPartly sunny.12 mph88%29.59 "HgN/A
7:30 AM54 °FLight rain. Mostly cloudy.10 mph88%29.59 "HgN/A
7:00 AM54 °FLight rain. Mostly cloudy.12 mph88%29.59 "HgN/A
6:30 AM55 °FLight rain. Mostly cloudy.14 mph82%29.59 "HgN/A
6:00 AM55 °FLight rain. Mostly cloudy.17 mph82%29.59 "Hg3 mi
5:30 AM55 °FLight rain. Mostly cloudy.15 mph88%29.59 "HgN/A
5:00 AM57 °FLow clouds.15 mph82%29.59 "HgN/A
4:30 AM57 °FLow clouds.15 mph82%29.59 "HgN/A
4:00 AM57 °FLow clouds.16 mph88%29.59 "HgN/A
3:30 AM57 °FMostly cloudy.16 mph88%29.56 "HgN/A
3:00 AM61 °FMostly cloudy.15 mph88%29.56 "HgN/A
2:30 AM61 °FMostly cloudy.9 mph88%29.56 "HgN/A
2:00 AM61 °FSprinkles. Low clouds.9 mph88%29.59 "HgN/A
1:30 AM61 °FSprinkles. Mostly cloudy.9 mph88%29.56 "HgN/A
1:00 AM63 °FSprinkles. Mostly cloudy.14 mph88%29.56 "HgN/A
12:30 AM63 °FSprinkles. Mostly cloudy.5 mph88%29.59 "Hg4 mi
12:00 AM63 °FThundershowers. Passing clouds.5 mph88%29.59 "Hg5 mi
11:30 PM
Sep 22
63 °FThunderstorms. Mostly cloudy.9 mph88%29.59 "Hg3 mi
11:00 PM63 °FStrong thunderstorms. Dense fog.10 mph88%29.56 "Hg0 mi
10:30 PM63 °FThundershowers. Passing clouds.10 mph88%29.59 "HgN/A
10:00 PM63 °FThunderstorms. Mostly cloudy.12 mph88%29.59 "Hg2 mi
9:30 PM63 °FThundershowers. Mostly cloudy.8 mph88%29.59 "HgN/A
9:00 PM63 °FThundershowers. Passing clouds.12 mph88%29.59 "HgN/A
8:30 PM66 °FThundershowers. Passing clouds.12 mph78%29.62 "HgN/A
8:00 PM66 °FThunderstorms. Partly sunny.9 mph83%29.62 "HgN/A
7:30 PM66 °FPartly sunny.8 mph83%29.62 "HgN/A
7:00 PM68 °FPartly sunny.9 mph78%29.62 "HgN/A
6:30 PM68 °FSprinkles. Partly sunny.10 mph78%29.62 "HgN/A
6:00 PM73 °FSprinkles. Partly sunny.12 mph61%29.62 "Hg2 mi
5:30 PM77 °FPartly sunny.7 mph44%29.62 "HgN/A
5:00 PM79 °FPartly sunny.7 mph42%29.62 "HgN/A
4:30 PM77 °FPartly sunny.5 mph44%29.62 "HgN/A
4:00 PM77 °FPartly sunny.3 mph44%29.65 "HgN/A
3:30 PM77 °FPartly sunny.5 mph44%29.65 "HgN/A
3:00 PM77 °FPartly sunny.3 mph44%29.65 "HgN/A
2:30 PM77 °FPartly sunny.6 mph47%29.68 "HgN/A
2:00 PM73 °FPartly sunny.5 mph57%29.68 "HgN/A
1:30 PM75 °FPartly sunny.6 mph54%29.68 "HgN/A
1:00 PM73 °FPartly sunny.7 mph57%29.71 "HgN/A
Weather by CustomWeather, © 2014

See weather overviewHow to use our weather pages